STARLINK-33656 (63389 NORAD) Tracking and Keplerian Element Data

This shows tracking and keplerian element data for the satellite.

Feedback or suggestion? Click here.




ElementValue
Catalog63389
NameSTARLINK-33656
Epoch Orbit4259
Epoch Day354.23265863
Epoch Year2025
RAAN61.5707
Inclination53.1582
Eccentricity0.0001317
Argument of Perigee97.6612
Mean Anonmoly262.4538
Mean Motion15.30206086
Decay Rate0.00016799
L11 63389U 25063AC 25354.23265863 .00016799 00000+0 57790-3 0 9991
L22 63389 53.1582 61.5707 0001317 97.6612 262.4538 15.30206086 42595



Live tracking and technical data element details for STARLINK-33656 (NORAD 63389). STARLINK-33656 can be tracked NOW for your location showing map with azimuth and elevation plus other details from your city location.







IsCatalogInMostPopularTable: catalog: 63389, numindb: 2
Update: records affected: 1



GetName: 63389 STARLINK-33656

Hit Count: updated at: Mon, 09 Feb 2026 08:20:09 GMT